This is the latest recevied weather packets stored in our database for station/object KB4RFE. If no packets are shown the sender has not sent any weather packets the latest 10 day(s).
| Time | Temp. | Humidity | Pressure | Rain* | Wind** | Luminosity | Snow |
|---|---|---|---|---|---|---|---|
| 1777561986 | 22.22° C | 89% | 1012.1 hPa | 0 mm | - | 489 W/m² | - |
| 1777561683 | 21.67° C | 88% | 1012.1 hPa | 0 mm | - | 370 W/m² | - |
| 1777561378 | 21.67° C | 90% | 1012.2 hPa | 0 mm | - | 237 W/m² | - |
| 1777561074 | 21.67° C | 90% | 1012.1 hPa | 0 mm | - | 292 W/m² | - |
| 1777560769 | 21.67° C | 91% | 1012.1 hPa | 0.51 mm | - | 283 W/m² | - |
| 1777560467 | 21.67° C | 92% | 1012.4 hPa | 0 mm | - | 261 W/m² | - |
| 1777560164 | 21.11° C | 93% | 1012.4 hPa | 0.51 mm | - | 267 W/m² | - |
| 1777559861 | 20.56° C | 93% | 1012.4 hPa | 1.27 mm | - | 262 W/m² | - |
| 1777559557 | 20.56° C | 93% | 1012.5 hPa | 0.51 mm | - | 194 W/m² | - |
| 1777559254 | 20.56° C | 93% | 1012.3 hPa | 0 mm | - | 166 W/m² | - |
| 1777558950 | 20.56° C | 93% | 1012.1 hPa | 0 mm | - | 113 W/m² | - |
| 1777558646 | 20.56° C | 93% | 1012.2 hPa | 0 mm | - | 121 W/m² | - |
| 1777558341 | 20.56° C | 93% | 1012.3 hPa | 0 mm | - | 112 W/m² | - |
| 1777558038 | 20.56° C | 92% | 1011.9 hPa | 0 mm | - | 94 W/m² | - |
| 1777557734 | 20.56° C | 93% | 1012 hPa | 0 mm | - | 113 W/m² | - |
| 1777557431 | 20.56° C | 92% | 1011.9 hPa | 0 mm | - | 120 W/m² | - |
| 1777557128 | 20.56° C | 92% | 1011.8 hPa | 0 mm | - | 244 W/m² | - |
| 1777556823 | 20.56° C | 93% | 1011.8 hPa | 0 mm | - | 241 W/m² | - |
| 1777556520 | 20.56° C | 93% | 1011.9 hPa | 0 mm | - | 226 W/m² | - |
| 1777556219 | 20.56° C | 93% | 1012 hPa | 0 mm | - | 282 W/m² | - |
| 1777555915 | 20.56° C | 93% | 1012.1 hPa | 0 mm | - | 229 W/m² | - |
| 1777555611 | 20.56° C | 94% | 1012.4 hPa | 0 mm | - | 177 W/m² | - |
| 1777555308 | 20.56° C | 94% | 1012.4 hPa | 0.51 mm | - | 90 W/m² | - |
| 1777555004 | 20.56° C | 94% | 1012.4 hPa | 1.78 mm | - | 62 W/m² | - |
| 1777554702 | 20.56° C | 94% | 1012.4 hPa | 3.05 mm | - | 46 W/m² | - |
* Rain latest hour (hover to see other rain measurements)
** Current wind speed in m/s (hover to see current wind gust speed)